Wind_Speed
10 10 9 5 5 3 5 10 13 15 15 5 7 5 3 3 3 4 5 6 4 6 6 7 8 6 7 11 14 16 17 17 15 14 14 13 14 15 15 17 16 16 16 17 17 17 17 18 19
12 11 10 6 4 2 9 8 12 13 11 8 4 2 1 1 1 2 4 4 4 4 4 4 5 6 9 11 13 14 15 13 12 12 12 13 14 16 15 17 18 19 20 20 21 20 19 20 20
14 12 11 7 6 5 5 6 9 11 9 9 5 3 1 1 2 4 4 4 4 3 3 5 5 5 5 7 8 9 10 10 11 11 12 14 15 17 18 20 20 21 21 22 22 22 23 23 24
15 13 12 9 8 10 7 4 8 12 10 8 9 4 2 2 3 3 3 3 2 2 3 3 5 5 4 4 6 7 8 9 11 12 13 14 15 16 18 19 21 22 22 23 23 23 24 24 25
17 15 12 11 10 11 9 3 7 12 8 9 12 10 4 3 4 3 3 3 3 2 2 3 3 5 5 6 6 8 8 9 10 11 12 13 15 17 19 21 22 23 23 23 24 25 25 26 26
17 16 12 10 13 13 10 4 7 11 12 13 13 11 6 4 4 2 4 2 2 2 2 2 4 5 6 6 5 5 7 9 10 12 13 14 16 17 19 21 22 24 26 26 27 27 27 27 27
20 18 16 15 15 13 10 5 7 10 12 9 9 7 6 6 6 2 3 3 2 2 3 3 4 5 5 6 7 7 8 10 11 13 14 16 18 19 21 22 24 26 27 27 28 28 28 29 30
22 20 18 15 15 15 10 7 9 11 12 10 13 12 13 10 9 4 2 3 4 2 4 4 5 7 8 8 8 8 9 12 15 15 17 18 20 22 24 25 26 27 27 28 29 29 30 31 32
24 22 19 18 17 15 10 12 11 13 14 15 13 15 15 8 7 7 4 3 3 4 6 6 8 9 10 11 12 12 14 15 16 18 20 22 24 26 28 29 29 28 29 30 32 32 33 34 34
24 22 18 21 19 15 12 13 13 16 16 12 7 10 13 11 10 10 7 5 5 6 8 9 10 11 12 12 14 14 16 18 19 20 22 25 26 29 30 30 30 30 32 33 34 35 36 36 38
22 20 20 21 20 17 14 14 15 17 18 17 10 9 14 15 14 16 13 9 8 8 10 10 10 11 12 13 15 17 18 20 21 23 25 27 29 31 32 31 33 34 34 35 36 36 37 39 40
21 21 22 23 21 19 17 17 17 18 21 19 11 11 16 16 17 16 15 12 11 12 12 10 11 13 12 15 17 18 20 22 23 25 27 27 29 31 31 33 34 35 35 35 36 38 39 41 41
23 22 25 25 21 20 18 19 19 20 22 22 14 15 17 20 20 18 16 15 15 15 15 14 15 14 14 15 18 18 20 23 24 26 27 28 28 30 33 34 35 35 35 37 39 41 40 40 41
24 23 25 24 22 21 20 22 22 23 24 22 17 18 21 21 25 19 18 20 21 20 20 20 18 16 16 16 18 19 22 24 26 27 26 27 29 32 32 32 34 35 37 39 40 39 38 38 40
18 23 24 25 25 25 24 25 22 27 24 21 17 18 22 23 22 19 19 20 23 26 29 29 23 16 16 18 16 20 24 25 27 27 27 29 31 30 31 33 35 37 39 40 39 38 38 39 39
17 20 24 28 28 28 27 24 24 26 21 16 16 16 20 20 19 20 24 28 26 37 42 38 24 13 16 17 19 22 25 26 28 29 30 31 29 31 33 35 37 40 40 39 37 36 38 38 36
17 19 23 29 26 29 27 23 29 21 19 15 16 18 20 20 18 20 15 13 19 25 29 34 26 14 13 17 21 22 25 29 31 30 28 28 30 32 35 36 38 39 38 37 34 34 35 34 32
16 18 22 23 23 22 21 21 20 19 18 18 21 22 22 20 20 13 14 14 18 21 24 22 20 14 15 17 18 22 26 30 28 26 27 30 33 35 36 38 40 37 37 35 32 32 33 32 30
20 19 21 23 21 20 19 20 20 19 18 20 22 24 24 24 24 16 16 14 17 18 12 8 8 12 12 16 21 24 28 27 26 27 30 33 35 36 37 40 37 37 36 33 30 30 31 29 27
21 20 20 23 22 21 21 20 19 17 18 21 25 28 26 25 25 22 19 19 16 15 9 7 7 12 14 18 24 27 28 27 26 28 32 34 36 36 37 36 34 35 32 30 27 27 27 26 24
21 22 23 22 25 23 24 22 21 20 21 23 24 22 23 25 30 23 19 21 18 13 8 5 6 11 17 20 23 27 29 26 27 30 33 35 35 36 35 34 34 34 31 27 26 26 25 23 21
20 25 26 28 26 20 27 21 22 24 22 22 22 21 21 23 23 20 19 18 22 17 14 8 12 15 19 22 25 30 27 26 29 31 32 33 35 35 33 34 34 33 29 26 25 25 25 24 21
26 24 25 28 28 28 29 28 19 28 22 20 16 16 18 19 20 22 23 22 24 21 6 9 16 18 20 23 29 28 24 27 29 30 32 33 34 33 34 34 34 32 28 26 25 26 25 22 19
21 22 25 24 24 29 24 24 19 22 21 21 19 19 21 21 20 20 19 19 22 25 13 18 18 20 22 25 26 24 26 27 28 30 32 33 32 34 34 34 33 30 27 25 25 26 24 23 22
21 20 17 16 17 19 22 26 22 19 21 20 22 23 23 24 20 21 20 17 21 24 17 20 23 24 23 26 22 24 26 26 29 30 31 32 33 34 33 33 31 28 26 25 24 25 24 23 23
20 21 14 16 15 16 25 23 18 21 26 31 32 32 25 23 22 21 20 17 19 20 20 25 25 22 24 23 23 24 25 27 29 31 31 32 33 33 34 33 31 28 26 24 24 24 24 24 25
16 19 20 25 23 24 22 19 23 21 24 21 22 21 22 20 20 19 18 18 20 18 19 23 16 20 23 24 23 24 25 28 30 30 30 32 33 34 34 33 30 28 27 25 25 26 26 26 26
20 21 19 20 21 25 20 20 17 17 13 13 16 13 16 17 19 21 22 23 24 19 21 20 21 21 26 24 24 24 25 29 30 31 31 31 33 33 32 31 30 27 25 25 26 27 28 29 29
20 18 25 25 27 24 24 22 21 26 16 16 12 17 21 20 21 19 18 17 20 19 22 24 22 22 25 24 24 24 26 30 30 31 31 32 32 32 32 31 29 29 26 25 26 27 28 29 30
20 27 31 28 23 26 31 30 29 31 25 21 16 23 22 20 20 19 17 18 19 21 21 21 18 20 21 24 23 25 27 31 30 31 32 32 32 33 31 30 28 27 25 24 24 25 27 28 29
Wind_Direction
273 277 282 291 286 330 5 354 0 11 6 42 92 141 156 201 253 264 269 279 262 251 256 260 257 271 279 255 252 257 264 264 255 253 266 269 269 270 276 279 281 277 278 279 278 274 272 270 267
266 270 272 277 260 346 282 341 355 13 10 349 76 89 82 138 210 248 232 244 240 246 256 272 282 276 263 261 262 268 271 268 270 276 278 277 281 283 286 288 287 287 287 286 286 283 283 280 276
261 262 262 264 255 221 253 331 351 7 3 326 286 305 354 279 190 216 234 249 255 291 322 340 317 294 284 273 272 277 281 283 286 288 288 289 289 288 287 286 286 286 285 283 283 282 281 281 279
258 258 260 251 241 250 252 312 342 360 346 314 288 288 250 275 261 229 238 258 295 354 359 331 307 287 275 267 270 269 275 280 281 277 277 280 281 280 283 284 288 289 290 290 288 286 286 285 284
251 256 251 245 239 246 248 270 331 349 352 338 286 277 274 242 237 256 282 314 343 2 344 307 273 272 265 265 270 277 279 281 284 288 289 291 294 298 300 300 300 296 294 292 291 291 290 288 285
246 250 244 236 239 242 242 244 317 340 344 330 286 280 291 267 258 326 311 315 335 332 295 280 263 257 261 266 270 274 281 281 284 288 291 294 293 299 300 300 300 298 297 296 295 293 292 289 286
240 245 237 231 238 242 237 243 298 320 337 327 292 294 290 263 241 212 308 329 1 337 308 290 282 271 279 281 277 282 278 282 291 296 297 304 306 307 306 305 304 303 300 299 296 294 292 290 287
239 241 246 247 238 232 231 245 282 298 316 313 291 313 315 282 266 240 284 348 334 313 296 293 286 286 282 282 283 286 294 294 294 297 302 303 303 304 306 308 307 303 300 297 296 296 295 292 289
235 237 242 243 239 229 229 245 266 284 307 325 280 292 291 270 283 278 285 316 328 317 293 279 273 277 275 288 288 289 285 286 294 296 299 304 308 309 311 310 307 305 302 300 299 298 295 293 290
236 232 232 235 235 229 230 243 265 281 299 326 312 294 289 281 283 302 300 293 292 290 284 277 272 276 281 280 286 290 292 298 301 303 308 310 310 310 311 307 305 303 302 302 301 300 298 296 294
231 226 228 235 236 233 227 242 259 274 289 313 305 279 288 296 289 284 285 276 279 275 269 271 272 277 284 293 295 295 302 305 311 311 311 313 312 310 308 305 305 305 303 302 300 298 297 295 293
226 221 228 232 233 235 234 245 256 267 282 296 301 290 298 288 288 285 278 263 271 273 275 276 274 273 283 290 291 298 303 305 310 312 312 310 306 306 304 304 303 301 301 302 301 299 297 296 293
225 220 227 236 236 240 245 250 253 266 280 295 298 280 286 292 284 276 277 271 267 269 265 261 260 266 275 284 290 299 302 309 310 308 307 303 304 304 304 305 304 304 305 304 303 302 300 298 294
227 227 229 236 239 241 243 249 257 270 284 284 281 282 287 288 287 286 286 284 278 267 261 258 260 266 276 279 292 300 306 308 306 307 306 304 305 305 307 306 305 306 308 309 307 305 304 302 299
238 239 237 238 240 241 244 252 265 272 276 277 274 279 288 292 287 292 295 289 274 272 271 262 243 252 270 285 296 295 298 305 309 308 307 308 308 308 308 309 312 313 313 311 310 311 310 308 305
246 245 248 246 244 247 250 259 260 264 263 258 263 277 287 275 275 286 288 282 265 272 264 265 253 252 274 287 293 298 306 308 308 309 311 310 311 311 313 315 315 315 314 313 314 315 314 312 306
241 244 243 251 243 248 251 250 247 248 247 248 255 269 278 275 280 290 306 335 283 301 263 258 257 270 281 294 299 306 308 309 311 312 314 312 312 315 316 316 315 315 315 315 316 316 317 315 313
245 234 240 243 243 242 241 234 237 234 241 245 250 261 273 267 273 294 298 305 324 330 266 255 245 294 303 303 304 308 312 314 315 315 314 316 318 317 316 315 316 316 316 317 317 320 321 319 319
239 236 240 242 239 237 225 229 228 234 243 252 260 265 269 260 266 278 287 292 305 333 335 280 310 313 309 309 309 314 314 313 314 316 320 319 318 317 316 314 315 317 317 315 315 318 318 315 316
241 245 244 247 238 233 236 235 242 249 254 251 250 259 268 256 268 270 274 279 309 323 0 4 343 319 314 317 318 318 313 312 315 320 319 317 315 313 312 312 315 316 313 310 314 318 320 318 319
246 244 247 238 243 241 244 248 254 258 262 264 260 264 261 261 267 266 268 272 291 291 307 296 308 314 318 314 318 313 311 313 317 317 314 312 311 312 311 315 318 316 310 309 313 315 317 318 320
242 240 244 249 254 249 254 253 261 262 262 259 261 264 263 263 259 266 276 268 278 290 263 282 302 309 313 317 313 313 311 314 312 310 312 311 312 312 316 318 318 313 308 306 308 311 315 315 316
242 246 244 251 257 250 258 261 243 263 265 260 258 258 277 277 256 274 279 272 268 292 308 297 300 308 312 314 316 314 310 307 307 311 312 314 313 317 319 318 315 310 304 302 305 307 309 308 310
256 259 256 254 256 259 262 257 256 271 269 261 266 268 279 264 265 279 285 287 279 287 321 313 304 307 313 316 313 308 306 307 311 313 315 314 317 321 320 316 311 308 302 302 302 302 302 302 302
254 252 260 267 254 264 248 244 258 233 263 263 262 274 272 265 268 274 291 285 278 273 315 307 301 306 308 315 309 306 308 311 313 316 316 318 323 321 317 314 310 307 304 302 302 301 300 297 296
264 253 235 244 246 249 265 261 270 263 256 272 274 279 268 269 271 286 290 278 277 275 296 297 300 303 307 311 304 307 309 313 316 319 319 323 322 320 320 315 311 310 305 301 301 299 298 297 297
265 266 247 250 251 253 254 268 278 277 269 268 264 264 265 267 277 277 288 280 283 278 289 299 300 305 308 307 303 307 312 317 321 320 324 325 323 324 323 320 317 315 311 304 300 299 296 294 294
257 252 265 276 266 255 264 265 261 262 275 282 282 269 245 254 260 275 276 283 281 275 287 296 294 303 304 303 305 307 316 321 323 324 327 327 327 327 327 326 322 316 311 309 304 299 296 295 296
265 273 269 256 243 252 259 257 261 259 267 269 244 253 239 256 268 280 273 271 283 282 285 288 289 302 298 301 305 310 322 324 329 328 328 329 329 328 328 325 321 316 312 313 310 305 300 298 298
264 257 256 257 266 273 253 246 238 257 272 269 267 231 242 247 263 280 276 280 287 279 287 286 287 301 297 303 308 316 327 331 331 328 330 331 330 328 326 323 320 317 313 313 313 309 305 302 302
Height
5904 5904 5905 5907 5910 5908 5908 5908 5905 5903 5901 5897 5893 5894 5893 5892 5892 5893 5890 5890 5889 5889 5888 5889 5889 5888 5888 5888 5888 5889 5889 5889 5889 5889 5888 5888 5888 5888 5887 5887 5886 5885 5884 5884 5883 5882 5881 5880 5879
5902 5903 5904 5907 5908 5913 5911 5907 5905 5903 5901 5898 5895 5893 5892 5891 5890 5890 5890 5889 5888 5887 5887 5887 5886 5885 5885 5886 5886 5887 5888 5888 5888 5887 5887 5887 5886 5886 5885 5885 5884 5883 5882 5880 5880 5879 5878 5877 5876
5901 5902 5904 5905 5907 5912 5909 5906 5904 5903 5901 5899 5896 5894 5892 5892 5890 5889 5889 5888 5887 5886 5886 5885 5886 5885 5885 5885 5886 5886 5886 5885 5885 5885 5885 5885 5884 5883 5882 5881 5880 5879 5877 5876 5875 5874 5874 5873 5872
5899 5900 5902 5903 5906 5905 5905 5905 5904 5902 5900 5898 5896 5894 5892 5891 5890 5889 5888 5887 5886 5885 5885 5884 5885 5885 5884 5884 5884 5884 5884 5884 5883 5883 5883 5882 5882 5880 5879 5877 5876 5874 5873 5871 5870 5868 5868 5866 5866
5896 5898 5899 5901 5903 5902 5903 5903 5902 5901 5900 5898 5896 5894 5893 5891 5890 5889 5888 5886 5885 5884 5884 5884 5883 5884 5883 5883 5881 5882 5881 5881 5881 5880 5880 5879 5879 5877 5875 5874 5872 5871 5869 5867 5866 5865 5862 5861 5859
5894 5896 5897 5899 5900 5901 5901 5901 5901 5900 5899 5897 5895 5894 5893 5891 5890 5888 5888 5887 5885 5884 5884 5883 5883 5883 5883 5882 5882 5881 5880 5880 5880 5880 5879 5877 5877 5874 5872 5870 5868 5866 5865 5862 5860 5858 5857 5855 5854
5891 5893 5895 5897 5898 5898 5899 5900 5899 5899 5898 5897 5895 5894 5892 5891 5889 5887 5887 5886 5885 5884 5884 5883 5883 5883 5884 5882 5882 5881 5879 5879 5878 5877 5876 5875 5874 5871 5869 5866 5863 5861 5859 5856 5855 5853 5850 5849 5848
5887 5890 5892 5894 5896 5896 5898 5898 5897 5897 5897 5896 5894 5893 5892 5890 5888 5887 5886 5885 5884 5884 5884 5883 5883 5882 5883 5882 5881 5880 5878 5877 5876 5874 5874 5872 5869 5867 5865 5863 5859 5857 5854 5851 5849 5846 5844 5842 5841
5883 5887 5889 5891 5892 5895 5896 5894 5894 5894 5894 5894 5892 5892 5890 5889 5887 5886 5885 5884 5884 5883 5883 5882 5881 5881 5881 5880 5879 5877 5877 5875 5873 5872 5871 5869 5866 5863 5860 5857 5854 5851 5849 5846 5843 5840 5838 5835 5833
5878 5883 5886 5886 5889 5892 5892 5892 5892 5892 5892 5892 5890 5890 5888 5887 5886 5885 5884 5883 5882 5881 5880 5880 5879 5879 5879 5877 5876 5875 5874 5871 5870 5869 5866 5864 5861 5858 5854 5852 5849 5846 5842 5840 5836 5833 5830 5827 5824
5874 5880 5882 5883 5885 5887 5889 5889 5889 5889 5889 5889 5888 5888 5886 5885 5884 5883 5882 5880 5879 5878 5877 5877 5876 5876 5875 5874 5873 5871 5869 5868 5866 5865 5862 5859 5856 5852 5850 5847 5844 5840 5837 5833 5830 5826 5823 5819 5815
5871 5875 5878 5878 5881 5883 5886 5886 5887 5886 5886 5886 5886 5885 5884 5883 5881 5879 5879 5878 5876 5875 5875 5874 5872 5871 5870 5869 5868 5867 5866 5864 5862 5860 5857 5853 5850 5848 5845 5842 5838 5835 5831 5827 5822 5818 5813 5809 5805
5867 5871 5873 5874 5877 5880 5883 5883 5883 5884 5883 5883 5883 5882 5881 5880 5879 5878 5877 5875 5874 5873 5871 5870 5868 5867 5866 5866 5864 5863 5861 5859 5858 5856 5852 5848 5844 5841 5839 5835 5831 5828 5823 5818 5813 5808 5804 5799 5794
5863 5866 5869 5872 5874 5876 5878 5878 5879 5880 5881 5881 5880 5879 5878 5877 5876 5876 5876 5875 5873 5871 5868 5866 5864 5864 5863 5861 5861 5859 5857 5856 5854 5851 5847 5843 5840 5836 5832 5828 5825 5820 5815 5809 5803 5799 5794 5788 5783
5860 5863 5866 5868 5870 5871 5873 5874 5877 5875 5877 5877 5877 5876 5875 5874 5874 5874 5873 5872 5870 5869 5867 5863 5860 5858 5859 5858 5857 5856 5854 5852 5849 5846 5842 5838 5834 5830 5825 5821 5815 5810 5805 5799 5794 5789 5783 5777 5772
5857 5859 5861 5862 5864 5866 5870 5872 5872 5871 5872 5873 5873 5874 5874 5873 5872 5871 5870 5867 5865 5863 5860 5859 5857 5855 5856 5856 5855 5852 5849 5846 5843 5840 5835 5831 5827 5823 5818 5812 5807 5802 5797 5792 5786 5780 5774 5769 5764
5852 5855 5857 5855 5859 5861 5864 5868 5865 5868 5868 5869 5870 5871 5871 5870 5869 5867 5865 5862 5861 5854 5849 5850 5852 5851 5852 5852 5850 5847 5844 5841 5837 5832 5828 5825 5821 5815 5810 5805 5800 5795 5789 5784 5779 5774 5768 5762 5757
5848 5850 5852 5853 5854 5856 5858 5860 5862 5862 5863 5865 5866 5867 5867 5867 5865 5863 5861 5859 5856 5848 5843 5845 5847 5848 5848 5847 5845 5842 5839 5836 5831 5827 5823 5818 5813 5808 5803 5798 5793 5787 5782 5777 5772 5767 5761 5755 5750
5843 5845 5847 5848 5850 5851 5853 5853 5856 5858 5860 5862 5863 5863 5863 5862 5861 5860 5858 5855 5852 5848 5843 5842 5842 5844 5844 5843 5840 5837 5833 5830 5826 5822 5816 5811 5807 5802 5797 5791 5786 5781 5775 5771 5766 5762 5756 5751 5745
5840 5842 5843 5843 5845 5847 5848 5851 5853 5855 5857 5857 5858 5858 5858 5858 5857 5856 5854 5852 5850 5848 5843 5840 5841 5842 5840 5838 5835 5832 5829 5825 5820 5815 5810 5806 5802 5797 5793 5787 5781 5776 5770 5765 5761 5756 5751 5746 5741
5837 5838 5839 5839 5839 5843 5845 5848 5849 5851 5852 5852 5854 5855 5854 5855 5853 5852 5850 5847 5846 5845 5842 5840 5839 5837 5835 5833 5830 5828 5824 5819 5814 5809 5806 5802 5797 5792 5787 5781 5775 5769 5764 5759 5755 5751 5747 5743 5738
5833 5832 5833 5834 5837 5842 5840 5845 5846 5846 5847 5849 5850 5851 5850 5849 5849 5848 5846 5844 5840 5840 5837 5836 5834 5832 5831 5828 5826 5822 5818 5813 5809 5805 5801 5797 5792 5786 5780 5774 5768 5762 5757 5753 5750 5746 5742 5738 5734
5827 5829 5830 5830 5832 5835 5836 5838 5845 5840 5841 5844 5846 5846 5845 5845 5845 5845 5842 5838 5832 5834 5831 5832 5830 5828 5826 5824 5820 5817 5813 5810 5805 5801 5796 5791 5786 5780 5774 5768 5762 5756 5751 5748 5744 5741 5737 5734 5730
5824 5825 5826 5827 5829 5828 5832 5834 5838 5840 5836 5838 5841 5841 5840 5841 5841 5840 5838 5835 5832 5829 5826 5828 5826 5824 5822 5819 5815 5812 5809 5805 5800 5795 5790 5785 5780 5774 5767 5762 5756 5750 5746 5742 5739 5736 5732 5729 5726
5818 5821 5824 5825 5826 5827 5828 5828 5830 5836 5832 5833 5836 5836 5836 5837 5837 5836 5834 5832 5829 5827 5825 5823 5822 5820 5817 5814 5811 5808 5804 5800 5795 5790 5785 5780 5774 5768 5762 5756 5750 5744 5740 5736 5733 5730 5727 5724 5721
5815 5816 5822 5824 5827 5829 5822 5823 5827 5825 5826 5827 5829 5830 5830 5831 5831 5830 5828 5826 5825 5823 5822 5820 5817 5815 5812 5809 5807 5803 5799 5795 5790 5785 5780 5774 5768 5762 5756 5750 5744 5739 5734 5730 5728 5725 5722 5719 5716
5811 5811 5813 5813 5816 5818 5820 5822 5819 5820 5820 5822 5823 5823 5824 5824 5825 5824 5823 5822 5821 5819 5818 5816 5814 5811 5808 5805 5802 5798 5794 5790 5786 5780 5774 5769 5763 5757 5750 5743 5737 5733 5728 5724 5722 5719 5716 5713 5710
5804 5805 5808 5810 5811 5812 5816 5817 5818 5818 5819 5820 5818 5818 5818 5819 5819 5819 5817 5817 5814 5814 5814 5812 5810 5807 5803 5800 5797 5794 5790 5786 5780 5775 5769 5764 5758 5750 5744 5737 5733 5727 5722 5719 5716 5713 5710 5707 5704
5800 5802 5800 5801 5803 5806 5809 5813 5813 5809 5811 5813 5815 5815 5813 5813 5813 5813 5812 5812 5810 5810 5809 5807 5805 5802 5798 5795 5793 5789 5785 5781 5775 5770 5764 5758 5752 5745 5739 5733 5728 5723 5718 5713 5710 5706 5703 5700 5698
5793 5793 5793 5795 5800 5796 5795 5799 5802 5801 5805 5808 5809 5808 5807 5807 5808 5808 5807 5806 5806 5805 5803 5801 5799 5797 5794 5790 5788 5785 5780 5775 5770 5764 5759 5753 5746 5740 5733 5728 5722 5718 5713 5708 5704 5700 5697 5694 5690